Phuket, Thailand

2:48 PM +07 on April 28, 2017 (GMT +0700)
Phuket International

Weather History for VTSP - May, 2012

Change the Weather History Date:

Wednesday, May 16, 2012

  Actual Average Record
Temperature  
Mean Temperature 80 °F -  
Max Temperature 86 °F 88 °F 96 °F (2002)
Min Temperature 75 °F 77 °F 73 °F (1997)
Cooling Degree Days 16    
Growing Degree Days 30 (Base 50)    
Moisture  
Dew Point 77 °F    
Average Humidity 87    
Maximum Humidity 100    
Minimum Humidity 70    
Precipitation  
Precipitation 0.24 in 0.41 in - ()
Sea Level Pressure  
Sea Level Pressure 29.76 in    
Wind  
Wind Speed 11 mph ()    
Max Wind Speed 21 mph    
Max Gust Speed 26 mph    
Visibility 4.3 miles    
Events Rain , Thunderstorm    
Averages and records for this station are not official NWS values.
T = Trace of Precipitation, MM = Missing Value Source: Averaged Metar Reports

Daily Weather History Graph

Daily Weather History Graph

Search for Another Location

Airport or City:

Trip Planner

Search our weather history database for the weather conditions in past years. The results will help you decide how hot, cold, wet, or windy it might be!

Date:

Astronomy

May. 16, 2012 Rise Set
Actual Time 6:08 AM +07 6:38 PM +07
Civil Twilight 5:45 AM +07 7:00 PM +07
Nautical Twilight 5:20 AM +07 7:26 PM +07
Astronomical Twilight 4:53 AM +07 7:52 PM +07
Moon 2:37 AM +07 (5/16) 3:03 PM +07 (5/16)
Length of Visible Light 13h 14m
Length of Day
12h 29m
Waning Crescent, 19% of the Moon is Illuminated
May 16
Waning Crescent
May 21
New
May 29
First Quarter
Jun 4
Full
Jun 11
Last Quarter

Hourly Weather History & Observations

Time (+07) Temp. Heat Index Dew Point Humidity Pressure Visibility Wind Dir Wind Speed Gust Speed Precip Events Conditions
12:00 AM 84.2 °F 94.1 °F 77.0 °F 79% 29.80 in 4.3 mi West 15.0 mph - N/A   Mostly Cloudy
12:30 AM 84.2 °F 98.3 °F 80.6 °F 89% 29.80 in 4.3 mi West 15.0 mph - N/A   Mostly Cloudy
1:00 AM 85 °F - 78 °F 75% 29.76 in 6 mi West 11.5 mph - -   Scattered Clouds
1:00 AM 84.2 °F 96.1 °F 78.8 °F 84% 29.77 in 4.3 mi West 18.4 mph - N/A   Mostly Cloudy
1:30 AM 84.2 °F 96.1 °F 78.8 °F 84% 29.77 in 4.3 mi West 18.4 mph - N/A   Mostly Cloudy
2:00 AM 84.2 °F 100.6 °F 82.4 °F 94% 29.77 in 4.3 mi West 11.5 mph - N/A   Mostly Cloudy
2:30 AM 84.2 °F 94.1 °F 77.0 °F 79% 29.74 in 5.0 mi West 13.8 mph - N/A   Mostly Cloudy
3:00 AM 84.2 °F 94.1 °F 77.0 °F 79% 29.74 in 5.0 mi West 15.0 mph - N/A   Mostly Cloudy
3:30 AM 84.2 °F 96.1 °F 78.8 °F 84% 29.74 in 5.0 mi West 13.8 mph - N/A   Mostly Cloudy
4:00 AM 84.2 °F 100.6 °F 82.4 °F 94% 29.74 in 5.0 mi West 13.8 mph - N/A   Mostly Cloudy
4:30 AM 82.4 °F 94.0 °F 80.6 °F 94% 29.74 in 5.0 mi West 11.5 mph - N/A   Mostly Cloudy
5:00 AM - - - N/A% 10.07 in 5.0 mi West 9.2 mph - N/A   Mostly Cloudy
5:30 AM 84.2 °F 100.6 °F 82.4 °F 94% 29.77 in 5.0 mi SSW 5.8 mph - N/A   Mostly Cloudy
6:00 AM 80.6 °F 87.1 °F 77.0 °F 89% 29.77 in 3.1 mi West 11.5 mph - N/A Rain Rain
6:30 AM 78.8 °F - 78.8 °F 100% 29.80 in 3.1 mi NW 9.2 mph - N/A   Mostly Cloudy
7:00 AM 81 °F - 75 °F 77% 29.75 in 5 mi WNW 10.4 mph - - Thunderstorm Thunderstorm
7:00 AM 77.0 °F - 75.2 °F 94% 29.77 in 4.3 mi NNW 6.9 mph - N/A Rain Light Rain
7:30 AM 77.0 °F - 75.2 °F 94% 29.80 in 3.1 mi WNW 9.2 mph - N/A   Mostly Cloudy
8:30 AM 78.8 °F - 77.0 °F 94% 29.80 in 3.1 mi Calm Calm - N/A Rain Rain
9:00 AM 77.0 °F - 75.2 °F 94% 29.80 in 1.2 mi West 5.8 mph - N/A Rain Heavy Rain
9:30 AM 77.0 °F - 77.0 °F 100% 29.83 in 3.1 mi Calm Calm - N/A Rain Light Rain
10:00 AM 78.8 °F - 77.0 °F 94% 29.80 in 4.3 mi SSW 3.5 mph - N/A   Mostly Cloudy
10:30 AM 80.6 °F 87.1 °F 77.0 °F 89% 29.80 in 4.3 mi West 3.5 mph - N/A   Mostly Cloudy
11:00 AM 84.2 °F 94.1 °F 77.0 °F 79% 29.80 in 4.3 mi West 5.8 mph - N/A   Mostly Cloudy
11:30 AM 82.4 °F 90.9 °F 77.0 °F 84% 29.80 in 4.3 mi NW 5.8 mph - N/A   Mostly Cloudy
12:00 PM 86.0 °F 101.9 °F 80.6 °F 84% 29.80 in 4.3 mi WNW 11.5 mph - N/A   Mostly Cloudy
12:30 PM 84.2 °F 92.3 °F 75.2 °F 74% 29.77 in 5.0 mi West 11.5 mph - N/A   Mostly Cloudy
1:00 PM 85 °F - 77 °F 71% 29.75 in 6 mi West 11.5 mph - -   Partly Cloudy
1:00 PM 86.0 °F 99.3 °F 78.8 °F 79% 29.77 in 5.0 mi West 11.5 mph - N/A   Mostly Cloudy
1:30 PM 82.4 °F 87.2 °F 71.6 °F 70% 29.74 in 3.1 mi WSW 20.7 mph - N/A Rain Light Rain
2:00 PM 80.6 °F 89.3 °F 80.6 °F 100% 29.74 in 4.3 mi WSW 17.3 mph - N/A   Mostly Cloudy
2:30 PM 78.8 °F - 77.0 °F 94% 29.74 in 4.3 mi WSW 16.1 mph - N/A   Mostly Cloudy
3:00 PM 82.4 °F 89.5 °F 75.2 °F 79% 29.71 in 4.3 mi West 11.5 mph - N/A   Mostly Cloudy
3:30 PM 82.4 °F 89.5 °F 75.2 °F 79% 29.71 in 4.3 mi WSW 13.8 mph - N/A   Mostly Cloudy
4:00 PM 84.2 °F 98.3 °F 80.6 °F 89% 29.74 in 3.1 mi West 13.8 mph 26.5 mph N/A   Mostly Cloudy
4:30 PM 75.2 °F - 75.2 °F 100% 29.74 in 4.3 mi West 11.5 mph - N/A   Mostly Cloudy
5:00 PM 77.0 °F - 75.2 °F 94% 29.74 in 4.3 mi SSW 5.8 mph - N/A   Mostly Cloudy
5:30 PM 80.6 °F 86.2 °F 75.2 °F 84% 29.74 in 4.3 mi WSW 13.8 mph - N/A   Mostly Cloudy
6:00 PM 80.6 °F 87.1 °F 77.0 °F 89% 29.74 in 3.1 mi WSW 17.3 mph - N/A   Mostly Cloudy
6:30 PM 78.8 °F - 77.0 °F 94% 29.77 in 3.1 mi WSW 11.5 mph - N/A   Mostly Cloudy
7:00 PM 80 °F - 74 °F 79% 29.75 in 6 mi SW 6.9 mph - -   Partly Cloudy
7:00 PM 78.8 °F - 77.0 °F 94% 29.74 in 4.3 mi SW 5.8 mph - N/A   Mostly Cloudy
7:30 PM 78.8 °F - 73.4 °F 83% 29.74 in 4.3 mi WSW 9.2 mph - N/A   Mostly Cloudy
8:00 PM 78.8 °F - 78.8 °F 100% 29.77 in 4.3 mi West 10.4 mph - N/A   Mostly Cloudy
8:30 PM 80.6 °F 87.1 °F 77.0 °F 89% 29.74 in 4.3 mi West 15.0 mph - N/A   Mostly Cloudy
9:00 PM 80.6 °F 87.1 °F 77.0 °F 89% 29.74 in 4.3 mi West 16.1 mph - N/A   Mostly Cloudy
9:30 PM 80.6 °F 87.1 °F 77.0 °F 89% 29.74 in 4.3 mi West 13.8 mph - N/A   Mostly Cloudy
10:00 PM 82.4 °F 90.9 °F 77.0 °F 84% 29.74 in 4.3 mi West 12.7 mph - N/A   Mostly Cloudy
10:30 PM 82.4 °F 92.4 °F 78.8 °F 89% 29.77 in 4.3 mi West 12.7 mph - N/A   Mostly Cloudy
11:00 PM 82.4 °F 92.4 °F 78.8 °F 89% 29.77 in 4.3 mi West 11.5 mph - N/A   Mostly Cloudy
11:30 PM 82.4 °F 92.4 °F 78.8 °F 89% 29.77 in 4.3 mi West 11.5 mph - N/A   Mostly Cloudy